�N����,����,�~����,�C��,���x,�C��,����,���ϕ���,�ő�u�ԕ���,�ő厞����,���˗�,�I�_���x,�n�����x,�ő啗���N��,DTYPE
"23/06/28","00:10",0.0,24.4,87.2,1008.8,324.4,0.7,1.7,344.7,0.00,22.2,23.1,"00:06:16",1
"23/06/28","00:20",0.0,24.4,87.5,1008.3,307.9,0.6,1.1,351.2,0.00,22.2,23.0,"00:10:40",1
"23/06/28","00:30",0.0,24.3,87.7,1008.3,266.8,0.6,1.1,247.7,0.00,22.2,23.1,"00:28:56",1
"23/06/28","00:40",0.0,24.3,87.9,1007.8,281.5,0.6,1.2,254.9,0.00,22.2,23.0,"00:35:04",1
"23/06/28","00:50",0.0,24.3,88.0,1008.1,272.0,0.8,1.3,268.1,0.00,22.2,23.1,"00:40:08",1
"23/06/28","01:00",0.0,24.2,88.1,1008.1,272.0,0.7,1.2,254.6,0.00,22.1,23.0,"00:57:04",1
"23/06/28","01:10",0.0,24.2,88.1,1008.1,288.6,0.7,1.4,322.7,0.00,22.1,23.0,"01:05:36",1
"23/06/28","01:20",0.0,24.4,88.3,1008.1,327.3,1.0,1.9,339.5,0.00,22.4,23.0,"01:19:44",1
"23/06/28","01:30",0.0,24.1,88.4,1008.1,326.9,1.2,1.9,329.3,0.00,22.1,22.8,"01:29:20",1
"23/06/28","01:40",0.0,24.1,88.5,1007.8,313.0,0.8,1.7,319.8,0.00,22.1,22.8,"01:39:04",1
"23/06/28","01:50",0.0,24.0,88.6,1008.1,298.5,0.8,1.4,322.0,0.00,22.0,23.1,"01:48:48",1
"23/06/28","02:00",0.0,24.0,88.6,1007.8,277.2,0.5,1.2,241.0,0.00,22.0,22.8,"01:53:04",1
"23/06/28","02:10",0.0,23.9,88.6,1007.8,288.7,0.6,1.1,243.2,0.00,21.9,22.8,"02:01:36",1
"23/06/28","02:20",0.0,23.9,88.7,1007.8,303.7,0.8,1.3,324.8,0.00,22.0,22.8,"02:15:44",1
"23/06/28","02:30",0.0,23.9,88.7,1007.8,332.1,0.8,1.3,346.9,0.00,22.0,22.9,"02:20:24",1
"23/06/28","02:40",0.0,23.9,88.9,1007.6,303.6,0.6,0.9,310.5,0.00,22.0,22.9,"02:32:40",1
"23/06/28","02:50",0.0,23.8,89.0,1008.1,287.3,0.6,1.1,320.8,0.00,21.9,22.8,"02:48:16",1
"23/06/28","03:00",0.0,23.7,89.1,1008.1,322.0,0.8,1.1,313.9,0.00,21.8,22.9,"02:54:16",1
"23/06/28","03:10",0.0,23.6,89.2,1007.6,329.7,0.5,1.1,339.5,0.00,21.8,22.9,"03:01:12",1
"23/06/28","03:20",0.0,23.7,89.5,1007.8,342.9,0.5,1.4,328.4,0.00,21.9,22.8,"03:18:24",1
"23/06/28","03:30",0.0,23.6,89.8,1007.8,318.4,1.0,1.3,332.5,0.00,21.9,22.7,"03:24:00",1
"23/06/28","03:40",0.0,23.4,90.2,1007.8,273.8,1.0,1.4,332.7,0.00,21.7,22.8,"03:39:52",1
"23/06/28","03:50",0.0,23.4,90.4,1008.1,331.1,1.1,1.7,323.5,0.00,21.8,22.7,"03:41:44",1
"23/06/28","04:00",0.0,23.3,90.6,1008.1,345.3,0.7,1.4,332.8,0.00,21.7,22.8,"03:53:28",1
"23/06/28","04:10",0.0,23.2,90.7,1008.1,276.8,0.6,1.2,297.3,0.00,21.6,22.7,"04:07:44",1
"23/06/28","04:20",0.0,23.1,90.9,1008.3,281.1,0.7,1.2,266.4,0.00,21.6,22.5,"04:18:00",1
"23/06/28","04:30",0.0,23.1,91.1,1008.1,301.6,1.0,1.6,312.0,0.00,21.6,22.6,"04:28:24",1
"23/06/28","04:40",0.0,23.2,91.2,1007.8,326.6,1.2,1.8,320.7,0.00,21.7,22.5,"04:34:40",1
"23/06/28","04:50",0.0,23.2,91.3,1008.3,6.3,0.5,1.4,316.0,0.00,21.7,22.6,"04:41:36",1
"23/06/28","05:00",0.0,23.0,91.3,1007.8,300.5,0.6,1.2,321.4,0.00,21.5,22.5,"04:56:08",1
"23/06/28","05:10",0.0,22.9,91.5,1007.8,320.1,0.3,0.9,327.5,0.00,21.5,22.3,"05:09:12",1
"23/06/28","05:20",0.0,23.0,91.6,1007.8,315.6,0.8,1.3,318.7,0.00,21.6,22.7,"05:11:28",1
"23/06/28","05:30",0.0,23.1,91.8,1007.8,347.9,0.7,1.7,325.5,0.00,21.7,22.4,"05:29:20",1
"23/06/28","05:40",0.0,22.8,91.9,1007.8,302.3,1.0,1.7,334.9,0.00,21.5,22.5,"05:32:08",1
"23/06/28","05:50",0.0,22.7,92.1,1008.1,292.3,1.0,1.6,332.1,0.00,21.4,22.5,"05:43:20",1
"23/06/28","06:00",0.0,22.7,92.3,1008.1,278.0,0.8,1.1,266.0,0.00,21.4,22.4,"05:51:44",1
"23/06/28","06:10",0.0,22.7,92.5,1008.1,328.4,1.0,1.4,335.8,0.00,21.5,22.4,"06:05:36",1
"23/06/28","06:20",0.0,22.8,92.6,1008.1,322.8,1.1,1.4,332.6,0.00,21.6,22.4,"06:10:32",1
"23/06/28","06:30",0.0,22.9,92.8,1008.3,290.9,0.3,0.8,320.9,0.02,21.7,22.5,"06:20:02",1
"23/06/28","06:40",0.0,23.3,92.9,1007.8,330.7,1.0,1.8,316.9,0.04,22.1,22.5,"06:35:52",1
"23/06/28","06:50",0.0,23.6,92.8,1007.6,339.0,1.0,1.4,340.9,0.01,22.4,22.5,"06:49:04",1
"23/06/28","07:00",0.0,23.9,92.8,1008.1,311.6,0.2,1.0,319.6,0.03,22.7,22.5,"06:50:08",1
"23/06/28","07:10",0.0,24.5,92.7,1007.8,278.8,0.3,1.1,266.1,0.08,23.3,22.6,"07:07:36",1
"23/06/28","07:20",0.0,25.0,92.3,1007.6,276.1,0.3,0.8,322.7,0.06,23.7,22.3,"07:10:56",1
"23/06/28","07:30",0.0,25.8,92.3,1007.6,162.1,0.0,0.5,108.3,0.09,24.5,22.3,"07:26:24",1
"23/06/28","07:40",0.0,25.8,91.4,1007.8,319.0,0.2,1.4,346.1,0.12,24.3,22.4,"07:36:24",1
"23/06/28","07:50",0.0,26.1,90.1,1007.4,96.8,0.5,1.6,14.3,0.15,24.4,22.3,"07:49:52",1
"23/06/28","08:00",0.0,27.0,88.6,1007.1,27.7,0.6,1.4,15.8,0.16,25.0,22.5,"07:52:24",1
"23/06/28","08:10",0.0,27.5,85.3,1006.4,148.3,0.5,1.3,25.5,0.16,24.8,22.4,"08:01:04",1
"23/06/28","08:20",0.0,27.9,82.7,1006.9,176.0,0.7,1.4,184.0,0.20,24.7,22.6,"08:17:28",1
"23/06/28","08:30",0.0,28.3,80.4,1007.4,142.5,0.5,1.8,110.7,0.22,24.6,22.3,"08:28:48",1
"23/06/28","08:40",0.0,28.8,77.8,1007.1,120.8,0.8,1.9,112.9,0.25,24.6,22.4,"08:30:16",1
"23/06/28","08:50",0.0,29.4,75.6,1007.4,119.4,0.3,1.7,114.1,0.24,24.7,22.4,"08:44:40",1
"23/06/28","09:00",0.0,29.1,74.4,1007.6,107.6,0.5,2.1,107.2,0.13,24.1,22.6,"08:52:40",1
"23/06/28","09:10",0.0,29.4,75.2,1007.6,100.9,0.8,2.1,126.1,0.30,24.6,22.5,"09:06:16",1
"23/06/28","09:20",0.0,30.2,73.9,1008.1,109.2,0.7,2.1,38.4,0.36,25.1,22.5,"09:19:44",1
"23/06/28","09:30",0.0,30.8,72.4,1008.3,101.7,1.0,2.2,89.7,0.39,25.3,22.4,"09:27:36",1
"23/06/28","09:40",0.0,30.8,70.6,1008.3,116.1,0.6,2.2,115.2,0.30,24.9,22.7,"09:35:12",1
"23/06/28","09:50",0.0,29.9,71.8,1007.8,3.9,1.1,2.8,346.6,0.14,24.3,22.4,"09:44:24",1
"23/06/28","10:00",0.0,29.3,74.3,1007.6,6.1,1.0,2.7,347.4,0.17,24.3,22.5,"09:50:56",1
"23/06/28","10:10",0.0,29.7,74.0,1007.4,15.4,0.7,1.7,11.6,0.21,24.6,22.8,"10:08:16",1
"23/06/28","10:20",0.0,29.8,73.2,1006.9,18.4,1.0,2.4,318.2,0.14,24.5,22.7,"10:19:36",1
"23/06/28","10:30",0.0,29.1,74.5,1006.9,341.5,1.5,3.2,341.7,0.12,24.1,22.7,"10:25:36",1
"23/06/28","10:40",0.0,29.5,75.2,1006.7,337.4,0.8,2.2,346.4,0.17,24.7,22.8,"10:31:20",1
"23/06/28","10:50",0.0,30.5,72.4,1006.7,123.8,0.7,1.8,241.8,0.38,25.0,22.8,"10:48:16",1
"23/06/28","11:00",0.0,30.7,70.1,1007.4,343.4,0.7,2.2,301.7,0.20,24.7,22.7,"10:56:24",1
"23/06/28","11:10",0.0,29.9,71.8,1007.1,333.5,1.1,2.5,331.1,0.14,24.3,22.9,"11:08:32",1
"23/06/28","11:20",0.0,29.7,73.4,1006.9,331.2,1.7,4.0,338.0,0.20,24.5,22.9,"11:14:08",1
"23/06/28","11:30",0.0,29.6,73.1,1006.7,320.3,1.6,2.4,326.4,0.17,24.3,22.8,"11:22:32",1
"23/06/28","11:40",0.0,29.7,73.3,1006.4,280.5,1.3,2.7,348.0,0.18,24.4,22.9,"11:30:32",1
"23/06/28","11:50",0.0,29.7,73.7,1006.2,256.7,1.2,4.7,243.8,0.20,24.5,23.1,"11:43:28",1
"23/06/28","12:00",0.0,29.7,73.4,1005.7,298.5,1.1,2.5,334.0,0.19,24.5,22.9,"11:58:56",1
"23/06/28","12:10",0.0,29.7,73.4,1005.5,313.9,1.1,2.1,349.1,0.18,24.5,23.0,"12:00:24",1
"23/06/28","12:20",0.0,30.7,72.6,1006.0,175.7,0.8,2.2,237.0,0.35,25.2,23.0,"12:16:16",1
"23/06/28","12:30",0.0,30.8,70.3,1006.4,260.4,1.0,2.0,310.4,0.29,24.8,22.9,"12:20:48",1
"23/06/28","12:40",0.0,30.4,71.1,1006.4,247.6,1.5,4.2,193.6,0.24,24.6,23.0,"12:30:40",1
"23/06/28","12:50",0.0,30.5,71.0,1006.4,201.9,1.7,4.5,212.0,0.32,24.7,23.0,"12:48:24",1
"23/06/28","13:00",0.0,30.6,71.2,1006.2,201.7,1.8,3.5,227.6,0.31,24.8,23.3,"12:57:20",1
"23/06/28","13:10",0.0,30.4,70.2,1006.0,197.6,2.3,4.5,211.0,0.25,24.4,23.1,"13:06:24",1
"23/06/28","13:20",0.0,30.9,69.9,1006.0,224.0,1.7,5.0,219.7,0.31,24.8,23.2,"13:12:48",1
"23/06/28","13:30",0.0,30.8,68.6,1005.7,260.1,1.5,3.4,238.0,0.32,24.4,23.3,"13:21:36",1
"23/06/28","13:40",0.0,31.8,67.1,1006.2,206.5,2.5,4.9,221.2,0.61,25.0,23.3,"13:39:12",1
"23/06/28","13:50",0.0,31.7,65.8,1006.2,229.6,2.0,4.7,206.2,0.40,24.6,23.3,"13:40:16",1
"23/06/28","14:00",0.0,31.0,65.9,1006.0,257.8,1.6,3.9,232.7,0.17,23.9,23.4,"13:56:24",1
"23/06/28","14:10",0.0,30.9,67.7,1005.2,248.6,1.6,4.4,229.3,0.18,24.3,23.3,"14:05:44",1
"23/06/28","14:20",0.0,30.7,67.7,1005.2,227.2,1.3,3.3,234.8,0.13,24.1,23.2,"14:17:20",1
"23/06/28","14:30",0.0,30.2,69.0,1004.8,221.8,2.0,4.1,208.9,0.11,23.9,23.3,"14:25:44",1
"23/06/28","14:40",0.0,30.3,69.4,1004.3,233.6,1.3,4.0,222.8,0.12,24.1,23.3,"14:30:32",1
"23/06/28","14:50",0.0,30.6,70.2,1004.1,223.7,1.7,3.9,204.2,0.18,24.6,23.5,"14:42:16",1
"23/06/28","15:00",0.0,30.8,70.8,1004.3,340.8,0.7,1.7,353.6,0.19,24.9,23.4,"14:59:52",1
"23/06/28","15:10",0.0,30.5,70.8,1003.8,332.8,1.1,2.1,335.4,0.14,24.6,23.5,"15:05:28",1
"23/06/28","15:20",0.0,31.1,71.4,1004.3,346.8,1.5,2.5,349.5,0.34,25.4,23.5,"15:13:28",1
"23/06/28","15:30",0.0,31.1,68.7,1004.5,345.1,1.6,3.3,342.1,0.32,24.7,23.5,"15:28:40",1
"23/06/28","15:40",0.0,30.9,68.6,1004.5,319.3,1.1,2.6,326.6,0.11,24.5,23.7,"15:37:20",1
"23/06/28","15:50",0.0,30.7,70.0,1003.8,329.1,1.1,2.7,344.3,0.18,24.6,23.4,"15:41:20",1
"23/06/28","16:00",0.0,30.7,64.5,1003.8,256.3,1.1,2.4,214.5,0.11,23.3,23.3,"15:52:24",1
"23/06/28","16:10",0.0,30.4,63.8,1003.6,272.9,1.0,2.2,225.7,0.05,22.8,23.5,"16:01:28",1
"23/06/28","16:20",0.0,30.1,63.1,1003.4,258.9,1.5,3.4,247.7,0.01,22.3,23.6,"16:13:52",1
"23/06/28","16:30",0.4,28.0,68.8,1003.4,291.9,2.8,7.3,312.5,0.00,21.8,23.8,"16:25:52",1
"23/06/28","16:40",0.8,25.5,76.9,1003.1,297.5,1.7,4.0,228.6,0.00,21.2,23.7,"16:30:16",1
"23/06/28","16:50",0.2,24.5,81.5,1003.6,322.3,1.7,4.1,275.8,0.00,21.2,23.7,"16:43:04",1
"23/06/28","17:00",0.2,23.8,84.0,1004.1,316.8,2.0,4.1,339.3,0.00,21.0,23.5,"16:53:12",1
"23/06/28","17:10",0.2,23.6,85.7,1004.3,285.4,1.2,2.5,254.8,0.00,21.1,23.5,"17:09:16",1
"23/06/28","17:20",0.0,23.5,86.8,1004.8,333.4,1.8,4.9,345.5,0.00,21.2,23.5,"17:17:28",1
"23/06/28","17:30",0.0,23.5,87.6,1004.5,312.7,1.0,2.5,331.8,0.00,21.4,23.7,"17:25:44",1
"23/06/28","17:40",0.0,23.5,88.3,1004.3,327.3,1.1,2.0,345.7,0.02,21.5,23.5,"17:30:56",1
"23/06/28","17:50",0.0,23.6,88.8,1004.3,317.1,1.0,2.4,310.8,0.05,21.7,23.5,"17:43:04",1
"23/06/28","18:00",0.0,23.6,88.9,1004.5,324.7,1.0,2.8,339.3,0.04,21.7,23.5,"17:54:32",1
"23/06/28","18:10",0.0,23.9,89.1,1004.5,287.6,0.3,1.1,339.4,0.05,22.0,23.3,"18:06:00",1
"23/06/28","18:20",0.0,23.9,89.2,1004.3,330.3,1.1,2.2,353.3,0.05,22.1,23.4,"18:16:32",1
"23/06/28","18:30",0.0,24.0,89.4,1004.5,328.7,0.8,1.9,307.3,0.04,22.2,23.4,"18:21:04",1
"23/06/28","18:40",0.0,24.1,89.5,1004.1,276.3,0.6,1.4,298.1,0.05,22.3,23.5,"18:33:44",1
"23/06/28","18:50",0.0,24.4,89.5,1004.1,287.6,0.3,1.1,252.5,0.07,22.6,23.3,"18:42:48",1
"23/06/28","19:00",0.0,24.3,89.6,1004.3,290.1,1.0,2.1,304.4,0.06,22.5,23.3,"18:57:36",1
"23/06/28","19:10",0.0,24.4,89.5,1003.8,292.1,0.8,1.8,317.8,0.04,22.6,23.3,"19:00:24",1
"23/06/28","19:20",0.0,24.3,89.2,1004.1,291.1,0.7,1.3,246.4,0.01,22.4,23.3,"19:19:44",1
"23/06/28","19:30",0.0,24.2,89.3,1004.3,225.9,0.6,1.4,256.0,0.00,22.4,23.3,"19:20:16",1
"23/06/28","19:40",0.0,24.1,89.3,1004.1,214.3,0.7,1.7,233.4,0.00,22.3,23.1,"19:38:08",1
"23/06/28","19:50",0.0,24.0,89.5,1004.1,224.6,0.7,1.3,230.5,0.00,22.2,23.3,"19:40:08",1
"23/06/28","20:00",0.0,23.9,89.5,1004.1,225.0,0.7,1.3,223.1,0.00,22.1,23.2,"19:55:28",1
"23/06/28","20:10",0.0,24.0,89.7,1004.8,320.9,1.0,1.6,339.3,0.00,22.2,23.3,"20:07:28",1
"23/06/28","20:20",0.0,24.0,89.9,1004.3,340.5,0.8,1.4,335.8,0.00,22.3,23.3,"20:10:48",1
"23/06/28","20:30",0.0,23.9,90.1,1004.5,342.0,0.8,1.4,344.5,0.00,22.2,23.0,"20:21:44",1
"23/06/28","20:40",0.0,23.7,90.4,1004.3,336.8,0.8,1.7,329.9,0.00,22.1,23.4,"20:36:32",1
"23/06/28","20:50",0.0,23.5,90.7,1004.3,318.3,0.8,1.4,334.5,0.00,21.9,23.3,"20:46:56",1
"23/06/28","21:00",0.0,23.3,90.9,1004.5,304.8,0.8,1.2,332.0,0.00,21.8,23.2,"20:58:00",1
"23/06/28","21:10",0.0,23.4,91.3,1004.3,312.4,1.1,1.8,328.1,0.00,21.9,23.2,"21:08:48",1
"23/06/28","21:20",0.0,23.4,91.6,1004.8,310.1,1.2,2.0,338.2,0.00,22.0,23.2,"21:17:20",1
"23/06/28","21:30",0.0,23.3,91.8,1004.8,308.2,1.1,1.7,324.6,0.00,21.9,22.9,"21:29:12",1
"23/06/28","21:40",0.0,23.2,92.0,1004.5,317.1,1.0,1.6,342.2,0.00,21.9,23.0,"21:37:20",1
"23/06/28","21:50",0.0,23.1,92.2,1004.8,301.9,0.8,1.4,324.3,0.00,21.8,23.1,"21:48:08",1
"23/06/28","22:00",0.0,23.1,92.3,1004.5,313.6,0.8,1.2,340.1,0.00,21.8,23.2,"21:50:08",1
"23/06/28","22:10",0.0,23.0,92.5,1004.5,294.1,1.0,1.6,318.7,0.00,21.8,23.0,"22:06:24",1
"23/06/28","22:20",0.0,22.9,92.7,1004.3,300.8,0.8,1.6,320.2,0.00,21.7,23.0,"22:10:56",1
"23/06/28","22:30",0.0,22.9,92.9,1004.5,297.4,1.0,1.9,341.1,0.00,21.7,23.1,"22:24:56",1
"23/06/28","22:40",0.0,22.8,93.0,1004.3,299.6,1.1,1.8,305.4,0.00,21.6,23.0,"22:31:44",1
"23/06/28","22:50",0.0,22.7,93.1,1004.1,268.4,0.3,0.9,259.0,0.00,21.6,23.1,"22:47:36",1
"23/06/28","23:00",0.0,22.6,93.3,1004.1,301.6,1.0,1.6,326.1,0.00,21.5,23.1,"22:58:32",1
"23/06/28","23:10",0.0,22.6,93.5,1003.8,328.7,1.2,2.0,331.8,0.00,21.5,22.9,"23:01:12",1
"23/06/28","23:20",0.0,22.6,93.6,1004.3,300.5,1.0,1.6,323.1,0.00,21.6,23.0,"23:11:28",1
"23/06/28","23:30",0.0,22.7,93.7,1004.1,327.3,1.0,1.2,333.0,0.00,21.7,22.9,"23:27:36",1
"23/06/28","23:40",0.0,22.8,93.8,1004.3,333.1,0.8,1.2,334.0,0.00,21.8,23.1,"23:31:20",1
"23/06/28","23:50",0.0,22.7,93.8,1004.1,308.8,1.0,1.8,317.5,0.00,21.7,23.1,"23:42:48",1
"23/06/28","24:00",0.0,22.7,93.9,1003.8,298.5,0.8,1.3,332.5,0.00,21.7,23.0,"23:52:16",1
